Content
SEND FEEDBACK

Daily
Averages
Monthly
Summary
France

OISSEL, FRANCE


Home > Europe > France
Elevation: 515 feet     Latitude: 49 22N     Longitude: 001 10E

WEATHER
 
SELECT A DAY
Number of Records: 180,580;   Date Range: 7/1/96 - 10/24/14
 
SHARE

PRINT THIS DATA

[ ← Previous Day ]
WEATHER ALMANAC - APRIL 20, 2013
[ Next Day → ]
[ °C ]   °F
Weather ElementAverageHighLow
Temperature45 °F53.6 °F (4:00 pm)35.6 °F (7:00 am)
Dewpoint34.1 °F39.2 °F (12:30 am)28.4 °F (7:30 pm)
Humidity68.1 %93 % (5:00 am)31 % (8:00 pm)
Barometer30.40 in30.50 in (8:00 am)30.30 in (8:00 pm)
Wind Speed9.6 mph13.8 mph (1:00 pm)
Weather ElementAverage
Visibility7.2 mi
Wind DirectionESE (108.2 °)

Weather ElementTotal
Precipitation---
Heating Degree Days20.4 (Base 65)
Averaged from 51 records on April 20, 2013
WEATHER CONDITIONS BREAKOUT
WIND DIRECTION BREAKOUT
WEATHER BY HOUR - APRIL 20, 2013
[ °C ]   °F
Local TimeTemperatureDewpointHumidityBarometerVisibilityWind DirectionWind SpeedGust SpeedPrecipitationEventsConditions
12:30 AM42.8 °F39.2 °F87 %30.45 in6.2 miNorth (350°)6.9 mphPartly Cloudy
1:00 AM42.8 °F39.2 °F87 %30.45 in6.2 miNorth (360°)6.9 mph
1:30 AM42.8 °F37.4 °F81 %30.45 in6.2 miNorth (10°)6.9 mph
2:00 AM41.0 °F37.0 °F81 %30.47 in16.0 miNorth (10°)5.8 mphClear
2:00 AM41.0 °F37.4 °F87 %30.45 in6.2 miNorth (10°)5.8 mph
2:30 AM39.2 °F35.6 °F87 %30.45 in6.2 miNorth (10°)5.8 mph
3:00 AM39.2 °F35.6 °F87 %30.45 in6.2 miNorth (360°)4.6 mph
3:30 AM39.2 °F35.6 °F87 %30.42 in6.2 miNorth (360°)6.9 mph
4:00 AM39.2 °F35.6 °F87 %30.42 in6.2 miNorth (10°)8.1 mph
4:30 AM39.2 °F35.6 °F87 %30.42 in6.2 miNorth (360°)9.2 mph
5:00 AM37.4 °F35.6 °F93 %30.42 in6.2 miNorth (10°)10.4 mph
5:30 AM37.4 °F35.6 °F93 %30.42 in6.2 miNorth (10°)11.5 mphPartly Cloudy
6:00 AM37.4 °F35.6 °F93 %30.45 in6.2 miNorth (10°)10.4 mphPartly Cloudy
6:30 AM37.4 °F33.8 °F87 %30.45 in5.6 miNorth (360°)9.2 mphPartly Cloudy
7:00 AM35.6 °F33.8 °F93 %30.45 in6.2 miNNE (20°)8.1 mph
7:30 AM37.4 °F33.8 °F87 %30.45 in6.2 miNNE (20°)9.2 mph
8:00 AM37.0 °F35.0 °F88 %30.50 in8.0 miNNE (30°)8.1 mphMostly Cloudy
8:00 AM37.4 °F35.6 °F93 %30.45 in6.2 miNNE (30°)8.1 mphMostly Cloudy
8:30 AM39.2 °F35.6 °F87 %30.48 in6.2 miNE (40°)8.1 mphOvercast
9:00 AM39.2 °F35.6 °F87 %30.45 in6.2 miNE (50°)12.7 mphOvercast
9:30 AM41.0 °F35.6 °F81 %30.45 in6.2 miNE (40°)9.2 mphMostly Cloudy
10:00 AM42.8 °F35.6 °F76 %30.45 in6.2 miNNE (20°)11.5 mphPartly Cloudy
10:30 AM44.6 °F33.8 °F66 %30.45 in6.2 miNNE (20°)10.4 mphScattered Clouds
11:00 AM44.6 °F33.8 °F66 %30.45 in6.2 miNNE (30°)11.5 mphScattered Clouds
11:30 AM46.4 °F32.0 °F57 %30.45 in6.2 miNNE (30°)11.5 mphScattered Clouds
12:00 PM48.2 °F33.8 °F58 %30.42 in6.2 miNNE (20°)11.5 mphMostly Cloudy
12:30 PM50.0 °F32.0 °F50 %30.42 in6.2 miNNE (20°)11.5 mphPartly Cloudy
1:00 PM50.0 °F33.8 °F54 %30.42 in6.2 miNorth (10°)13.8 mphPartly Cloudy
1:30 PM50.0 °F32.0 °F50 %30.42 in6.2 miNE (40°)11.5 mph
2:00 PM51.0 °F33.0 °F38 %30.43 in19.0 miNE (40°)11.5 mphScattered Clouds
2:00 PM51.8 °F33.8 °F50 %30.42 in6.2 miNE (40°)11.5 mphScattered Clouds
2:30 PM51.8 °F32.0 °F47 %30.39 in6.2 miNorth (10°)11.5 mphScattered Clouds
3:00 PM51.8 °F32.0 °F47 %30.39 in6.2 miNNE (30°)12.7 mphPartly Cloudy
3:30 PM51.8 °F33.8 °F50 %30.39 in6.2 miNNE (20°)13.8 mphPartly Cloudy
4:00 PM53.6 °F32.0 °F44 %30.36 in6.2 miNNE (20°)12.7 mph
4:30 PM53.6 °F32.0 °F44 %30.36 in6.2 miNNE (20°)13.8 mph
5:00 PM51.8 °F30.2 °F44 %30.36 in6.2 miNorth (10°)11.5 mph
5:30 PM53.6 °F32.0 °F44 %30.33 in6.2 miNNE (30°)11.5 mph
6:00 PM53.6 °F30.2 °F41 %30.33 in6.2 miNNE (30°)11.5 mph
6:30 PM53.6 °F30.2 °F41 %30.33 in6.2 miNNE (30°)11.5 mph
7:00 PM53.6 °F30.2 °F41 %30.33 in6.2 miNNE (30°)10.4 mph
7:30 PM51.8 °F28.4 °F41 %30.33 in6.2 miNNE (30°)10.4 mph
8:00 PM51.0 °F29.0 °F31 %30.33 in31.0 miNNE (30°)9.2 mphClear
8:00 PM51.8 °F30.2 °F44 %30.30 in6.2 miNNE (30°)9.2 mph
8:30 PM50.0 °F30.2 °F47 %30.30 in6.2 miNorth (360°)5.8 mph
9:00 PM46.4 °F35.6 °F66 %30.33 in6.2 miNorth (350°)5.8 mph
9:30 PM44.6 °F35.6 °F71 %30.33 in6.2 miNNW (340°)8.1 mph
10:00 PM42.8 °F37.4 °F81 %30.33 in6.2 miNorth (350°)8.1 mph
10:30 PM42.8 °F37.4 °F81 %30.33 in6.2 miNorth (360°)8.1 mph
11:00 PM42.8 °F37.4 °F81 %30.33 in6.2 miNorth (350°)6.9 mph
11:30 PM41.0 °F35.6 °F81 %30.30 in6.2 miNorth (360°)6.9 mph
Hourly data recorded from LFOP, located miles away from Oissel, France







STORIES FROM OUR PARTNERS